Mackinac Island, MI

7:45 PM EDT on March 25, 2017 (GMT -0400)
Mackinac Island

Weather History for KMCD - January, 2012

Change the Weather History Date:

Sunday, January 29, 2012

  Actual Average Record
Temperature  
Mean Temperature 22 °F -  
Max Temperature 25 °F 24 °F 44 °F (2008)
Min Temperature 18 °F 13 °F -11 °F (1978)
Degree Days  
Heating Degree Days 44    
Moisture  
Dew Point 14 °F    
Average Humidity 71    
Maximum Humidity 82    
Minimum Humidity 52    
Precipitation  
Precipitation 0.00 in - - ()
Sea Level Pressure  
Sea Level Pressure 29.88 in    
Wind  
Wind Speed 13 mph (WNW)    
Max Wind Speed 21 mph    
Max Gust Speed 32 mph    
Visibility 10 miles    
Events Snow    
Averages and records for this station are not official NWS values.
T = Trace of Precipitation, MM = Missing Value Source: NWS Daily Summary

Daily Weather History Graph

Daily Weather History Graph

Search for Another Location

Airport or City:

Trip Planner

Search our weather history database for the weather conditions in past years. The results will help you decide how hot, cold, wet, or windy it might be!

Date:

Astronomy

Jan. 29, 2012 Rise Set
Actual Time 8:04 AM EST 5:39 PM EST
Civil Twilight 7:32 AM EST 6:11 PM EST
Nautical Twilight 6:56 AM EST 6:47 PM EST
Astronomical Twilight 6:21 AM EST 7:22 PM EST
Moon 10:30 AM EST (1/29) No Moon Set
Length of Visible Light 10h 39m
Length of Day
9h 34m
Waxing Crescent, 36% of the Moon is Illuminated
Jan 29
Waxing Crescent
Jan 30
First Quarter
Feb 7
Full
Feb 14
Last Quarter
Feb 21
New

Hourly Weather History & Observations

Time (EST) Temp. Windchill Dew Point Humidity Pressure Visibility Wind Dir Wind Speed Gust Speed Precip Events Conditions
12:14 AM 25.7 °F 11.5 °F 15.8 °F 66% 29.77 in 10.0 mi West 20.7 mph 29.9 mph N/A   Overcast
12:34 AM 25.7 °F 14.0 °F 16.5 °F 68% 29.77 in 10.0 mi WNW 13.8 mph 23.0 mph N/A   Overcast
12:55 AM 25.5 °F 12.9 °F 16.3 °F 68% 29.77 in 10.0 mi WNW 16.1 mph 28.8 mph N/A   Overcast
1:14 AM 25.5 °F 14.3 °F 16.7 °F 69% 29.77 in 10.0 mi WNW 12.7 mph 21.9 mph N/A   Overcast
1:34 AM 25.3 °F 14.1 °F 16.2 °F 68% 29.77 in 10.0 mi WNW 12.7 mph 32.2 mph N/A   Overcast
1:55 AM 25.2 °F 12.4 °F 16.0 °F 68% 29.77 in 10.0 mi WNW 16.1 mph 24.2 mph N/A   Overcast
2:14 AM 24.8 °F 13.4 °F 16.2 °F 70% 29.78 in 10.0 mi WNW 12.7 mph 26.5 mph N/A   Overcast
2:34 AM 24.8 °F 11.9 °F 15.8 °F 69% 29.78 in 10.0 mi WNW 16.1 mph 24.2 mph N/A   Overcast
2:55 AM 24.6 °F 12.2 °F 15.8 °F 69% 29.79 in 10.0 mi WNW 15.0 mph 23.0 mph N/A   Overcast
3:14 AM 24.4 °F 11.5 °F 15.6 °F 69% 29.79 in 10.0 mi WNW 16.1 mph 25.3 mph N/A   Overcast
3:34 AM 24.3 °F 12.2 °F 15.8 °F 70% 29.79 in 10.0 mi WNW 13.8 mph 24.2 mph N/A   Overcast
3:55 AM 23.7 °F 12.1 °F 15.6 °F 71% 29.79 in 10.0 mi WNW 12.7 mph 19.6 mph N/A   Overcast
4:14 AM 23.0 °F 10.1 °F 15.4 °F 73% 29.80 in 10.0 mi WNW 15.0 mph 19.6 mph N/A   Overcast
4:34 AM 22.6 °F 13.4 °F 15.4 °F 74% 29.80 in 10.0 mi WNW 8.1 mph 16.1 mph N/A   Overcast
4:55 AM 22.1 °F 11.3 °F 15.6 °F 76% 29.80 in 10.0 mi WNW 10.4 mph - N/A   Scattered Clouds
5:34 AM 21.9 °F 11.0 °F 15.6 °F 77% 29.80 in 10.0 mi WNW 10.4 mph 17.3 mph N/A   Clear
5:55 AM 21.9 °F 10.4 °F 15.8 °F 77% 29.80 in 10.0 mi West 11.5 mph 17.3 mph N/A   Clear
6:14 AM 21.6 °F 12.1 °F 15.6 °F 78% 29.81 in 10.0 mi WNW 8.1 mph 17.3 mph N/A   Clear
6:54 AM 20.7 °F 8.8 °F 14.0 °F 75% 29.82 in 10.0 mi West 11.5 mph 16.1 mph N/A   Clear
7:14 AM 20.3 °F 9.0 °F 13.8 °F 76% 29.82 in 10.0 mi West 10.4 mph 16.1 mph N/A   Clear
7:35 AM 20.3 °F 10.6 °F 13.6 °F 75% 29.83 in 10.0 mi West 8.1 mph 17.3 mph N/A   Clear
7:55 AM 20.1 °F 10.3 °F 14.0 °F 77% 29.83 in 10.0 mi WNW 8.1 mph - N/A   Clear
8:14 AM 20.3 °F 11.5 °F 14.9 °F 80% 29.83 in 10.0 mi WNW 6.9 mph - N/A   Clear
8:35 AM 20.3 °F 12.5 °F 15.1 °F 80% 29.84 in 10.0 mi West 5.8 mph - N/A   Clear
8:54 AM 21.0 °F 13.4 °F 15.8 °F 80% 29.85 in 10.0 mi WNW 5.8 mph - N/A   Scattered Clouds
9:14 AM 21.2 °F 10.1 °F 15.8 °F 80% 29.85 in 10.0 mi WNW 10.4 mph - N/A   Mostly Cloudy
9:35 AM 22.6 °F 12.6 °F 16.7 °F 78% 29.85 in 10.0 mi WNW 9.2 mph - N/A   Overcast
9:55 AM 22.8 °F 10.9 °F 16.7 °F 77% 29.85 in 10.0 mi WNW 12.7 mph 17.3 mph N/A   Overcast
10:14 AM 22.5 °F 11.1 °F 16.3 °F 77% 29.85 in 10.0 mi WNW 11.5 mph 16.1 mph N/A   Overcast
10:35 AM 22.6 °F 11.3 °F 15.6 °F 74% 29.86 in 10.0 mi WNW 11.5 mph 17.3 mph N/A   Overcast
10:54 AM 22.6 °F 11.3 °F 15.1 °F 73% 29.87 in 10.0 mi WNW 11.5 mph - N/A   Overcast
11:14 AM 23.2 °F 12.0 °F 14.2 °F 68% 29.87 in 10.0 mi WNW 11.5 mph 18.4 mph N/A   Overcast
11:34 AM 23.7 °F 12.1 °F 14.9 °F 69% 29.87 in 10.0 mi WNW 12.7 mph 19.6 mph N/A   Overcast
11:54 AM 24.1 °F 13.1 °F 14.2 °F 66% 29.87 in 10.0 mi WNW 11.5 mph 17.3 mph N/A   Overcast
12:14 PM 23.9 °F 11.7 °F 15.1 °F 69% 29.88 in 10.0 mi WNW 13.8 mph 17.3 mph N/A   Overcast
12:35 PM 24.1 °F 15.2 °F 14.9 °F 68% 29.88 in 10.0 mi WNW 8.1 mph 17.3 mph N/A   Overcast
12:54 PM 24.3 °F 14.6 °F 14.5 °F 67% 29.88 in 10.0 mi WNW 9.2 mph 18.4 mph N/A   Overcast
1:15 PM 24.4 °F 13.0 °F 11.5 °F 58% 29.88 in 10.0 mi WNW 12.7 mph 18.4 mph N/A   Mostly Cloudy
1:34 PM 24.6 °F 12.2 °F 10.9 °F 56% 29.88 in 10.0 mi West 15.0 mph 21.9 mph N/A   Overcast
1:54 PM 23.9 °F 11.7 °F 13.1 °F 63% 29.88 in 10.0 mi West 13.8 mph 21.9 mph N/A   Overcast
2:15 PM 24.6 °F 14.4 °F 11.5 °F 57% 29.89 in 10.0 mi WNW 10.4 mph 19.6 mph N/A   Mostly Cloudy
2:35 PM 25.3 °F 13.6 °F 9.7 °F 52% 29.89 in 10.0 mi WNW 13.8 mph 24.2 mph N/A   Overcast
2:54 PM 23.7 °F 12.1 °F 10.0 °F 56% 29.89 in 10.0 mi WNW 12.7 mph 21.9 mph N/A   Overcast
3:15 PM 24.8 °F 14.0 °F 10.2 °F 54% 29.90 in 10.0 mi West 11.5 mph 18.4 mph N/A   Overcast
3:34 PM 23.5 °F 11.3 °F 11.1 °F 59% 29.91 in 10.0 mi West 13.8 mph 23.0 mph N/A   Overcast
3:54 PM 24.6 °F 13.8 °F 11.7 °F 58% 29.92 in 10.0 mi WNW 11.5 mph 23.0 mph N/A   Overcast
4:34 PM 23.7 °F 11.5 °F 12.6 °F 62% 29.94 in 10.0 mi West 13.8 mph 21.9 mph N/A   Overcast
4:54 PM 22.3 °F 10.8 °F 13.1 °F 68% 29.95 in 10.0 mi WNW 11.5 mph 20.7 mph N/A   Overcast
5:15 PM 21.6 °F 8.8 °F 14.0 °F 73% 29.96 in 10.0 mi WNW 13.8 mph 19.6 mph N/A   Mostly Cloudy
5:54 PM 20.3 °F 8.3 °F 15.6 °F 82% 29.98 in 4.0 mi WNW 11.5 mph 18.4 mph N/A Snow Light Snow
6:34 PM 20.3 °F 10.6 °F 14.9 °F 80% 30.00 in 10.0 mi WNW 8.1 mph - N/A   Overcast
6:54 PM 19.9 °F 8.6 °F 13.8 °F 77% 30.01 in 10.0 mi WNW 10.4 mph - N/A   Overcast
7:14 PM 19.9 °F 7.3 °F 12.7 °F 74% 30.01 in 10.0 mi WNW 12.7 mph 17.3 mph N/A   Overcast
7:34 PM 19.4 °F 6.0 °F 11.8 °F 72% 30.02 in 10.0 mi WNW 13.8 mph 21.9 mph N/A   Overcast
7:55 PM 18.7 °F 5.7 °F 12.2 °F 76% 30.03 in 10.0 mi WNW 12.7 mph 19.6 mph N/A   Mostly Cloudy
8:14 PM 18.5 °F 8.4 °F 13.3 °F 80% 30.03 in 10.0 mi WNW 8.1 mph - N/A   Scattered Clouds
8:34 PM 18.5 °F 7.5 °F 13.1 °F 79% 30.04 in 10.0 mi WNW 9.2 mph 16.1 mph N/A   Clear
8:55 PM 18.5 °F 9.3 °F 13.1 °F 79% 30.05 in 10.0 mi WNW 6.9 mph 17.3 mph N/A   Scattered Clouds
9:14 PM 19.0 °F 6.8 °F 12.9 °F 77% 30.05 in 10.0 mi WNW 11.5 mph 17.3 mph N/A   Mostly Cloudy
9:34 PM 19.4 °F 7.2 °F 12.6 °F 75% 30.06 in 10.0 mi WNW 11.5 mph 17.3 mph N/A   Overcast
9:55 PM 19.4 °F 7.2 °F 11.5 °F 71% 30.06 in 10.0 mi WNW 11.5 mph 17.3 mph N/A   Overcast
10:15 PM 19.8 °F 9.9 °F 10.9 °F 69% 30.06 in 10.0 mi WNW 8.1 mph 18.4 mph N/A   Overcast
10:34 PM 19.9 °F 7.9 °F 10.6 °F 67% 30.06 in 10.0 mi WNW 11.5 mph 17.3 mph N/A   Overcast
11:14 PM 20.3 °F 9.0 °F 10.2 °F 65% 30.06 in 10.0 mi West 10.4 mph 17.3 mph N/A   Overcast
11:34 PM 20.3 °F 11.5 °F 10.9 °F 67% 30.07 in 10.0 mi WNW 6.9 mph - N/A   Overcast
11:55 PM 20.3 °F 10.6 °F 10.6 °F 66% 30.07 in 10.0 mi WNW 8.1 mph - N/A   Overcast